Previsão horária em Cegelnya

Hoje, 2 Agosto, Segunda-feira

Tempo Temperatura Precipitação Vento Pressão Humidade
00:00 +20°C° 0.3 mm 2 m/s 739 mmHg 67%
01:00 +19°C° 0.3 mm 2 m/s 738 mmHg 74%
02:00 +19°C° 0.3 mm 2 m/s 738 mmHg 80%
03:00 +18°C° 0.6 mm 2 m/s 738 mmHg 86%
04:00 +18°C° 0.6 mm 3 m/s 737 mmHg 91%
05:00 +18°C° 0.6 mm 3 m/s 737 mmHg 96%
06:00 +19°C° 0 mm 3 m/s 736 mmHg 93%
07:00 +20°C° 0 mm 4 m/s 736 mmHg 90%
08:00 +22°C° 0 mm 4 m/s 735 mmHg 87%
09:00 +24°C° 0 mm 6 m/s 735 mmHg 76%
10:00 +27°C° 0 mm 7 m/s 734 mmHg 66%
11:00 +29°C° 0 mm 8 m/s 734 mmHg 56%
12:00 +29°C° 0.2 mm 9 m/s 733 mmHg 54%
13:00 +29°C° 0.2 mm 9 m/s 733 mmHg 53%
14:00 +29°C° 0.2 mm 10 m/s 733 mmHg 51%
15:00 +27°C° 0 mm 9 m/s 734 mmHg 55%
16:00 +26°C° 0 mm 8 m/s 734 mmHg 60%
17:00 +23°C° 0 mm 7 m/s 734 mmHg 64%
18:00 +21°C° 0 mm 6 m/s 735 mmHg 70%
19:00 +19°C° 0 mm 6 m/s 736 mmHg 75%
20:00 +16°C° 0 mm 5 m/s 736 mmHg 81%
21:00 +15°C° 0 mm 4 m/s 737 mmHg 86%
22:00 +14°C° 0 mm 3 m/s 737 mmHg 90%
23:00 +13°C° 0 mm 3 m/s 738 mmHg 94%

Amanhã, 3 Agosto, Terça-feira

Tempo Temperatura Precipitação Vento Pressão Humidade
00:00 +13°C° 0 mm 3 m/s 738 mmHg 95%
01:00 +13°C° 0 mm 3 m/s 738 mmHg 95%
02:00 +13°C° 0 mm 3 m/s 738 mmHg 95%
03:00 +13°C° 0 mm 3 m/s 738 mmHg 96%
04:00 +13°C° 0 mm 3 m/s 739 mmHg 97%
05:00 +13°C° 0 mm 3 m/s 739 mmHg 98%
06:00 +14°C° 0 mm 3 m/s 739 mmHg 87%
07:00 +17°C° 0 mm 4 m/s 740 mmHg 76%
08:00 +18°C° 0 mm 4 m/s 740 mmHg 65%
09:00 +20°C° 0 mm 5 m/s 740 mmHg 58%
10:00 +21°C° 0 mm 5 m/s 740 mmHg 51%
11:00 +22°C° 0 mm 6 m/s 740 mmHg 44%
12:00 +22°C° 0 mm 5 m/s 740 mmHg 45%
13:00 +22°C° 0 mm 5 m/s 740 mmHg 47%
14:00 +21°C° 0 mm 4 m/s 740 mmHg 48%
15:00 +21°C° 0 mm 4 m/s 741 mmHg 50%
16:00 +21°C° 0 mm 4 m/s 741 mmHg 51%
17:00 +21°C° 0 mm 4 m/s 741 mmHg 53%
18:00 +20°C° 0 mm 4 m/s 741 mmHg 60%
19:00 +18°C° 0 mm 3 m/s 741 mmHg 68%
20:00 +16°C° 0 mm 3 m/s 742 mmHg 76%
21:00 +16°C° 0 mm 2 m/s 742 mmHg 80%
22:00 +15°C° 0 mm 2 m/s 742 mmHg 85%
23:00 +14°C° 0 mm 2 m/s 742 mmHg 89%

Depois de amanhã, 4 Agosto, Quarta-feira

Tempo Temperatura Precipitação Vento Pressão Humidade
00:00 +14°C° 0 mm 2 m/s 743 mmHg 91%
01:00 +13°C° 0 mm 2 m/s 743 mmHg 93%
02:00 +13°C° 0 mm 2 m/s 743 mmHg 95%
03:00 +13°C° 0 mm 2 m/s 743 mmHg 95%
04:00 +13°C° 0 mm 2 m/s 743 mmHg 95%
05:00 +13°C° 0 mm 2 m/s 744 mmHg 95%
06:00 +14°C° 0 mm 2 m/s 744 mmHg 85%
07:00 +16°C° 0 mm 2 m/s 744 mmHg 74%
08:00 +18°C° 0 mm 2 m/s 745 mmHg 64%
09:00 +20°C° 0 mm 3 m/s 745 mmHg 57%
10:00 +21°C° 0 mm 3 m/s 745 mmHg 51%
11:00 +22°C° 0 mm 3 m/s 745 mmHg 44%
12:00 +24°C° 0 mm 3 m/s 745 mmHg 43%
13:00 +24°C° 0 mm 3 m/s 745 mmHg 42%
14:00 +24°C° 0 mm 3 m/s 745 mmHg 41%
15:00 +24°C° 0 mm 2 m/s 745 mmHg 43%
16:00 +24°C° 0 mm 2 m/s 745 mmHg 45%
17:00 +23°C° 0 mm 2 m/s 745 mmHg 46%
18:00 +20°C° 0 mm 2 m/s 745 mmHg 55%
19:00 +19°C° 0 mm 1 m/s 745 mmHg 64%
20:00 +16°C° 0 mm 1 m/s 745 mmHg 73%
21:00 +16°C° 0 mm 1 m/s 745 mmHg 74%
22:00 +15°C° 0 mm 1 m/s 745 mmHg 75%
23:00 +15°C° 0 mm 1 m/s 745 mmHg 76%

5 Agosto, Quinta-feira

Tempo Temperatura Precipitação Vento Pressão Humidade
00:00 +14°C° 0 mm 1 m/s 745 mmHg 77%
01:00 +14°C° 0 mm 1 m/s 745 mmHg 78%
02:00 +14°C° 0 mm 1 m/s 745 mmHg 79%
03:00 +14°C° 0 mm 1 m/s 745 mmHg 80%
04:00 +14°C° 0 mm 1 m/s 746 mmHg 80%
05:00 +14°C° 0 mm 1 m/s 746 mmHg 80%
06:00 +16°C° 0 mm 2 m/s 746 mmHg 73%
07:00 +18°C° 0 mm 2 m/s 746 mmHg 67%
08:00 +20°C° 0 mm 2 m/s 746 mmHg 60%
09:00 +21°C° 0 mm 2 m/s 746 mmHg 55%
10:00 +24°C° 0 mm 3 m/s 745 mmHg 49%
11:00 +25°C° 0 mm 3 m/s 745 mmHg 43%
12:00 +26°C° 0 mm 3 m/s 745 mmHg 42%
13:00 +26°C° 0 mm 2 m/s 745 mmHg 40%
14:00 +26°C° 0 mm 2 m/s 745 mmHg 39%
15:00 +26°C° 0 mm 2 m/s 745 mmHg 44%
16:00 +25°C° 0 mm 3 m/s 744 mmHg 49%
17:00 +24°C° 0 mm 3 m/s 744 mmHg 54%
18:00 +21°C° 0 mm 3 m/s 744 mmHg 60%
19:00 +20°C° 0 mm 2 m/s 744 mmHg 67%
20:00 +19°C° 0 mm 2 m/s 744 mmHg 74%
21:00 +18°C° 0 mm 2 m/s 744 mmHg 76%
22:00 +17°C° 0 mm 3 m/s 744 mmHg 79%
23:00 +16°C° 0 mm 3 m/s 744 mmHg 81%

6 Agosto, Sexta-feira

Tempo Temperatura Precipitação Vento Pressão Humidade
00:00 +16°C° 0 mm 3 m/s 744 mmHg 84%
01:00 +14°C° 0 mm 4 m/s 743 mmHg 86%
02:00 +14°C° 0 mm 4 m/s 743 mmHg 89%
03:00 +14°C° 0 mm 4 m/s 743 mmHg 88%
04:00 +14°C° 0 mm 4 m/s 743 mmHg 87%
05:00 +14°C° 0 mm 5 m/s 742 mmHg 87%
06:00 +14°C° 0.8 mm 5 m/s 742 mmHg 89%
07:00 +14°C° 0.8 mm 5 m/s 742 mmHg 92%
08:00 +15°C° 0.8 mm 5 m/s 741 mmHg 95%
09:00 +15°C° 1 mm 6 m/s 741 mmHg 93%
10:00 +16°C° 1 mm 7 m/s 741 mmHg 91%
11:00 +16°C° 1 mm 8 m/s 741 mmHg 89%
12:00 +18°C° 0 mm 8 m/s 740 mmHg 80%
13:00 +21°C° 0 mm 8 m/s 740 mmHg 72%
14:00 +23°C° 0 mm 8 m/s 740 mmHg 63%
15:00 +22°C° 0.6 mm 7 m/s 739 mmHg 69%
16:00 +22°C° 0.6 mm 7 m/s 739 mmHg 76%
17:00 +22°C° 0.6 mm 6 m/s 738 mmHg 82%
18:00 +21°C° 1.4 mm 6 m/s 739 mmHg 87%
19:00 +20°C° 1.4 mm 6 m/s 739 mmHg 91%
20:00 +19°C° 1.4 mm 5 m/s 739 mmHg 96%
21:00 +19°C° 1.1 mm 4 m/s 740 mmHg 96%
22:00 +18°C° 1.1 mm 3 m/s 740 mmHg 97%
23:00 +18°C° 1.1 mm 2 m/s 740 mmHg 97%

7 Agosto, Sábado

Tempo Temperatura Precipitação Vento Pressão Humidade
00:00 +17°C° 0 mm 2 m/s 740 mmHg 97%
01:00 +17°C° 0 mm 2 m/s 740 mmHg 97%
02:00 +16°C° 0 mm 2 m/s 741 mmHg 97%
03:00 +15°C° 0 mm 2 m/s 741 mmHg 96%
04:00 +15°C° 0 mm 2 m/s 741 mmHg 96%
05:00 +15°C° 0 mm 1 m/s 741 mmHg 95%
06:00 +16°C° 0 mm 1 m/s 742 mmHg 90%
07:00 +18°C° 0 mm 1 m/s 742 mmHg 85%
08:00 +20°C° 0 mm 1 m/s 742 mmHg 81%
09:00 +21°C° 0 mm 1 m/s 743 mmHg 74%
10:00 +22°C° 0 mm 1 m/s 743 mmHg 67%
11:00 +24°C° 0 mm 1 m/s 743 mmHg 60%
12:00 +24°C° 0 mm 1 m/s 743 mmHg 60%
13:00 +24°C° 0 mm 1 m/s 743 mmHg 60%
14:00 +24°C° 0 mm 1 m/s 743 mmHg 60%
15:00 +24°C° 0 mm 1 m/s 744 mmHg 61%
16:00 +24°C° 0 mm 1 m/s 744 mmHg 61%
17:00 +24°C° 0 mm 1 m/s 744 mmHg 62%
18:00 +22°C° 0 mm 1 m/s 744 mmHg 69%
19:00 +21°C° 0 mm 1 m/s 744 mmHg 75%
20:00 +19°C° 0 mm 1 m/s 744 mmHg 81%
21:00 +18°C° 0 mm 1 m/s 745 mmHg 83%
22:00 +18°C° 0 mm 1 m/s 745 mmHg 85%
23:00 +16°C° 0 mm 1 m/s 745 mmHg 86%
Mostrar mais

Necessitamos do seu Consentimento

A Meteoprog e os seus Fornecedores de Serviços podem armazenar e aceder a dados pessoais como cookies, identificadores do dispositivo ou outras tecnologias semelhantes existentes no seu dispositivo e processar estes dados para personalizar conteúdos e anúncios, assim como funcionalidades nas redes sociais e análise de tráfego.

  • Armazenar e/ou aceder a informações no seu dispositivo

    Os cookies, identificadores do dispositivo ou outras informações podem ser armazenados ou acedidos no seu dispositivo, para os fins acima indicados.

  • Anúncios e conteúdos personalizados, medição de anúncios e conteúdos, dados sobre o público-alvo e desenvolvimento de produtos

    Os anúncios e os conteúdos podem ser personalizados com base num perfil. Podem ser adicionados dados adicionais para uma maior personalização dos anúncios e dos conteúdos. A eficácia dos anúncios e dos conteúdos pode ser medida. Podem ser obtidas informações sobre o público que visualizou os anúncios e os conteúdos. Estes dados podem ser usados para desenvolver ou melhorar sistemas, softwares ou a experiência do utilizador.

Ao clicar em "Eu concordo”, permitirá o uso de cookies, identificadores do dispositivo e web beacons mencionados ou outras tecnologias semelhantes. As configurações do navegador do seu dispositivo podem ser alteradas.

Para certos fins, podem ser invocados interesses legítimos ao invés de consentimento. Pode ler mais informação sobre este assunto na nossa Política de Privacidade e Cookies.